Location: Cheyres
(46.8153°N, 6.7877°E)
Time: 03:41:59
(UTC+00:00)

Cosmos 1238 Rocket - Pass Details

Date: 11 May 2021
Orbit: 374 x 1021 km, 82.9° (Epoch: 18 June)

Event Time Altitude Azimuth Distance (km) Brightness Sun altitude
Rises 22:13:38 0° 351° (N) 3,708 8.4 -22.9°
Reaches altitude 10° 22:16:19 10° 351° (N) 2,701 7.4 -23.0°
Maximum altitude 22:22:34 90° 78° (ENE) 873 3.7 -23.3°
Enters shadow 22:23:50 56° 172° (S) 996 3.7 -23.4°
